FENGYUN 1C DEB

Satellite information

Favourite Embed

Satellite Type and Status

DEBRISIN ORBIT

Key statistics

Satellite FENGYUN 1C DEB at a glance.

Uptime

9499

Days in orbit

Revolutions

≈ 14.8

Per day

Orbit

SSO

Sun Synchronous Orbit

Inclination

98.4

Latest

Satellite identification and parameters

Extended collection of information and parameters for FENGYUN 1C DEB.

Object identification

Identified? True

Debris? True

Object name: FENGYUN 1C DEB

International designator: 1999-025CSF

Object number (NORAD): 32137

Object ID (CCSDS): 32137

Country: PEOPLES REPUBLIC OF CHINA (PRC)

Current information (Y/N): Y

RCS size: SMALL

Orbital parameters

Period: 97.562 minutes

Inclination: 98.4228 deg

SMA: 7020.146 km

Apoapsis: 783.95 km

Periapsis: 500.072 km

RAAN: 245.5116 deg

Eccentricy: 0.0202188

Argument of periapsis: 10.2816 deg

Mean anomaly: 350.2433 deg

Mean motion: 14.75990358 rev/day

Mean motion (dot): 0.00007136 rev/day2

B* drag term: 0.00074748 1/REarth

Two-line elements (TLE)

Creation date: May 11, 2025, 2:40 a.m.

Reference frame: TEME

Reference center: EARTH

Epoch: May 8, 2025, 2:20 p.m. UTC

TLE line 0: 0 FENGYUN 1C DEB

TLE line 1: 1 32137U 99025CSF 25128.59750278 .00007136 00000-0 74748-3 0 9992

TLE line 2: 2 32137 98.4228 245.5116 0202188 10.2816 350.2433 14.75990358635087

Live tracking on map

Real-time ground track for satellite FENGYUN 1C DEB.

In-orbit conjunctions

A list of the most updated potential collisions computed for object FENGYUN 1C DEB.

Target Orbit TCA Probability of collision Miss distance Type
CZ-6A DEB LEO 2025-02-07 10:59:04 0.0001826633 124.0 (m) DEBRIS
CZ-6A DEB LEO 2025-02-01 18:33:31 0.0001314902 206.0 (m) DEBRIS

Associated space launch

Chinese polar orbiting meteorological satellite

FENGYUN 1C DEB was lifted into orbit during the mission ‘Long March 4B | Feng Yun 1C’, on board a Long March 4B space rocket.

The launch took place on May 10, 1999, 1:33 a.m. from Launch Complex 7.

For more information about the launch, click the button.

Launch to space Long March 4B | Feng Yun 1C
Long March 4B | Feng Yun 1C

Agency: N/A

Status: Launch Successful

Launch date: May 10, 1999, 1:33 a.m. UTC

Rocket: Long March 4B

Launch pad: Launch Complex 7

Location: Taiyuan Satellite Launch Center, People's Republic of China

...

Latest news about this satellite

There are no fresh news available about this satellite. Check back as we update our databases every day.


Newsletter sign-up

Weekly statistics, charts and insights to help you stay on top of the space industry.